{"data":{"norad_id":56882,"epoch":"2026-09-20T03:53:22.282944Z","epoch_age_seconds":147003,"freshness":"FRESH","line1":"1 56882U 23083G   26263.16206346 -.00000320  00000+0 -21089-5 0  9993","line2":"2 56882  43.0028  66.8183 0001128 265.6825  94.3898 15.27574493181374","mean_motion":15.27574493,"eccentricity":0.0001128,"inclination_deg":43.0028,"raan_deg":66.8183,"arg_perigee_deg":265.6825,"mean_anomaly_deg":94.3898,"bstar":-2.1089e-6,"rev_number":18137,"period_min":94.267088551079,"perigee_km":482.29164237662,"apogee_km":483.83952968003,"semimajor_km":6861.2025860283,"source":"CELESTRAK","updated_at":"2026-09-21T09:00:33.520514Z"}}